QPF
0.00 0.00 0.00 0.00 0.01 0.02 0.03 0.03 0.03 0.04 0.05 0.04 0.02 0.01 0.01 0.01 0.01 0.03 0.04 0.04 0.02 0.01 0.01 0.00 0.00 0.00 0.00 0.00 0.00 0.00 0.00 0.00 0.01 0.01 0.01 0.01 0.02 0.02 0.02 0.02 0.02 0.03 0.03 0.03 0.02 0.03 0.05 0.06 0.06
0.00 0.00 0.01 0.01 0.01 0.04 0.06 0.05 0.02 0.01 0.02 0.02 0.01 0.01 0.01 0.01 0.01 0.01 0.02 0.02 0.01 0.01 0.00 0.00 0.00 0.00 0.00 0.00 0.00 0.00 0.00 0.01 0.01 0.01 0.01 0.01 0.01 0.01 0.02 0.02 0.03 0.03 0.03 0.03 0.02 0.02 0.03 0.04 0.04
0.00 0.00 0.00 0.01 0.02 0.06 0.08 0.03 0.02 0.01 0.01 0.01 0.01 0.01 0.02 0.01 0.01 0.01 0.01 0.01 0.01 0.01 0.00 0.00 0.00 0.00 0.00 0.00 0.00 0.00 0.00 0.00 0.01 0.01 0.01 0.01 0.02 0.02 0.02 0.03 0.03 0.04 0.04 0.03 0.02 0.02 0.03 0.03 0.04
0.00 0.00 0.00 0.01 0.04 0.04 0.03 0.01 0.01 0.02 0.01 0.00 0.01 0.01 0.02 0.01 0.00 0.00 0.01 0.02 0.01 0.00 0.00 0.00 0.00 0.00 0.00 0.00 0.00 0.00 0.00 0.00 0.01 0.01 0.01 0.02 0.05 0.06 0.04 0.03 0.03 0.04 0.04 0.04 0.03 0.03 0.02 0.02 0.03
0.00 0.00 0.01 0.01 0.02 0.01 0.01 0.01 0.00 0.01 0.01 0.00 0.00 0.01 0.01 0.01 0.00 0.01 0.01 0.01 0.01 0.00 0.00 0.00 0.01 0.00 0.00 0.00 0.01 0.00 0.00 0.00 0.01 0.01 0.01 0.02 0.05 0.06 0.03 0.02 0.03 0.04 0.04 0.04 0.04 0.04 0.03 0.02 0.03
0.00 0.00 0.02 0.01 0.01 0.00 0.00 0.00 0.00 0.00 0.00 0.00 0.00 0.01 0.01 0.01 0.01 0.01 0.01 0.01 0.01 0.00 0.00 0.01 0.01 0.01 0.01 0.01 0.01 0.01 0.00 0.00 0.01 0.01 0.01 0.01 0.01 0.01 0.01 0.02 0.03 0.04 0.06 0.06 0.05 0.04 0.04 0.03 0.03
0.00 0.00 0.01 0.01 0.00 0.00 0.00 0.00 0.00 0.00 0.00 0.00 0.00 0.02 0.02 0.01 0.01 0.01 0.01 0.01 0.01 0.01 0.00 0.00 0.01 0.02 0.02 0.01 0.01 0.01 0.01 0.01 0.01 0.01 0.02 0.01 0.01 0.01 0.02 0.02 0.04 0.05 0.07 0.07 0.07 0.06 0.05 0.04 0.04
0.00 0.00 0.00 0.00 0.00 0.00 0.00 0.00 0.00 0.00 0.00 0.00 0.01 0.02 0.03 0.01 0.01 0.01 0.02 0.02 0.02 0.01 0.00 0.00 0.04 0.03 0.02 0.02 0.02 0.02 0.02 0.01 0.01 0.02 0.02 0.02 0.02 0.02 0.02 0.02 0.06 0.07 0.07 0.07 0.07 0.07 0.07 0.08 0.06
0.00 0.00 0.00 0.00 0.00 0.00 0.00 0.00 0.00 0.00 0.01 0.01 0.00 0.01 0.01 0.01 0.01 0.01 0.02 0.03 0.03 0.02 0.02 0.01 0.01 0.01 0.01 0.01 0.02 0.03 0.02 0.02 0.01 0.03 0.03 0.02 0.02 0.02 0.01 0.02 0.03 0.05 0.06 0.06 0.06 0.06 0.07 0.08 0.07
0.00 0.00 0.00 0.00 0.00 0.00 0.00 0.00 0.00 0.00 0.01 0.01 0.01 0.01 0.01 0.01 0.01 0.01 0.02 0.05 0.05 0.03 0.04 0.03 0.02 0.01 0.01 0.01 0.02 0.02 0.03 0.03 0.02 0.03 0.03 0.03 0.03 0.03 0.02 0.02 0.03 0.04 0.05 0.08 0.09 0.09 0.09 0.06 0.05
0.00 0.00 0.00 0.00 0.00 0.00 0.00 0.00 0.00 0.00 0.00 0.01 0.01 0.00 0.00 0.01 0.01 0.02 0.02 0.07 0.05 0.04 0.05 0.04 0.02 0.02 0.02 0.03 0.03 0.02 0.03 0.05 0.03 0.03 0.04 0.04 0.04 0.04 0.04 0.03 0.03 0.03 0.03 0.07 0.12 0.15 0.15 0.09 0.06
0.00 0.00 0.00 0.00 0.00 0.00 0.00 0.00 0.00 0.00 0.00 0.01 0.00 0.00 0.00 0.00 0.01 0.03 0.03 0.02 0.03 0.04 0.06 0.06 0.05 0.03 0.03 0.04 0.04 0.04 0.03 0.05 0.04 0.03 0.04 0.05 0.07 0.07 0.06 0.04 0.03 0.03 0.02 0.02 0.03 0.07 0.19 0.13 0.08
0.00 0.00 0.00 0.00 0.00 0.00 0.00 0.00 0.00 0.01 0.01 0.01 0.00 0.00 0.00 0.00 0.01 0.04 0.04 0.03 0.03 0.05 0.08 0.09 0.08 0.05 0.04 0.05 0.05 0.05 0.03 0.03 0.04 0.04 0.04 0.05 0.06 0.06 0.06 0.04 0.03 0.03 0.03 0.02 0.03 0.03 0.07 0.11 0.12
0.00 0.00 0.00 0.00 0.01 0.01 0.00 0.00 0.00 0.01 0.02 0.01 0.00 0.00 0.01 0.01 0.01 0.02 0.02 0.02 0.02 0.03 0.06 0.10 0.10 0.06 0.04 0.04 0.05 0.05 0.05 0.04 0.04 0.05 0.06 0.07 0.07 0.09 0.09 0.07 0.06 0.04 0.03 0.02 0.03 0.03 0.05 0.08 0.13
0.00 0.00 0.00 0.00 0.01 0.01 0.00 0.01 0.01 0.01 0.02 0.01 0.00 0.00 0.00 0.01 0.01 0.01 0.01 0.01 0.02 0.03 0.05 0.10 0.14 0.10 0.06 0.05 0.04 0.06 0.08 0.09 0.08 0.07 0.08 0.14 0.22 0.21 0.18 0.15 0.09 0.06 0.04 0.04 0.05 0.04 0.04 0.06 0.12
0.00 0.00 0.01 0.01 0.01 0.01 0.01 0.01 0.01 0.01 0.02 0.01 0.00 0.00 0.01 0.01 0.01 0.01 0.02 0.02 0.02 0.03 0.04 0.07 0.12 0.10 0.08 0.07 0.07 0.07 0.08 0.10 0.10 0.07 0.06 0.09 0.25 0.27 0.19 0.16 0.13 0.09 0.06 0.06 0.06 0.05 0.06 0.06 0.10
0.01 0.01 0.01 0.01 0.00 0.01 0.01 0.02 0.02 0.02 0.02 0.01 0.00 0.00 0.01 0.01 0.01 0.01 0.02 0.02 0.02 0.02 0.02 0.03 0.07 0.07 0.08 0.08 0.08 0.07 0.07 0.07 0.07 0.07 0.05 0.05 0.11 0.14 0.12 0.14 0.16 0.12 0.09 0.07 0.06 0.05 0.05 0.04 0.05
0.01 0.00 0.01 0.01 0.01 0.01 0.02 0.02 0.02 0.02 0.01 0.01 0.01 0.01 0.00 0.01 0.01 0.01 0.01 0.02 0.02 0.02 0.02 0.02 0.03 0.04 0.06 0.09 0.08 0.08 0.08 0.07 0.07 0.07 0.06 0.08 0.12 0.10 0.09 0.09 0.12 0.12 0.10 0.08 0.06 0.04 0.04 0.03 0.04
0.03 0.00 0.00 0.01 0.01 0.01 0.03 0.03 0.02 0.01 0.01 0.01 0.01 0.00 0.00 0.01 0.01 0.01 0.01 0.01 0.02 0.02 0.01 0.01 0.01 0.02 0.03 0.03 0.04 0.06 0.07 0.07 0.07 0.09 0.10 0.10 0.14 0.09 0.06 0.05 0.06 0.06 0.07 0.06 0.05 0.05 0.04 0.02 0.03
0.06 0.01 0.00 0.00 0.01 0.01 0.02 0.02 0.02 0.01 0.01 0.00 0.00 0.00 0.00 0.01 0.01 0.02 0.03 0.02 0.02 0.02 0.02 0.01 0.02 0.02 0.03 0.03 0.03 0.05 0.07 0.09 0.07 0.08 0.08 0.09 0.11 0.07 0.04 0.03 0.03 0.04 0.04 0.03 0.03 0.03 0.02 0.01 0.02
0.03 0.01 0.01 0.00 0.01 0.00 0.01 0.01 0.01 0.01 0.01 0.01 0.01 0.01 0.01 0.01 0.01 0.02 0.02 0.02 0.02 0.03 0.03 0.06 0.06 0.04 0.03 0.04 0.04 0.05 0.07 0.11 0.09 0.06 0.06 0.09 0.12 0.07 0.03 0.02 0.03 0.03 0.02 0.02 0.02 0.02 0.02 0.01 0.02
0.01 0.01 0.01 0.01 0.01 0.01 0.01 0.01 0.02 0.02 0.02 0.01 0.02 0.02 0.03 0.02 0.02 0.02 0.03 0.03 0.03 0.04 0.05 0.09 0.15 0.13 0.10 0.09 0.06 0.04 0.06 0.07 0.07 0.06 0.07 0.11 0.12 0.07 0.03 0.02 0.02 0.02 0.02 0.02 0.02 0.02 0.02 0.02 0.02
0.01 0.00 0.01 0.01 0.01 0.01 0.01 0.01 0.02 0.03 0.03 0.03 0.03 0.03 0.03 0.02 0.03 0.02 0.03 0.03 0.04 0.07 0.10 0.10 0.10 0.13 0.14 0.14 0.10 0.06 0.06 0.08 0.08 0.07 0.09 0.12 0.11 0.09 0.06 0.03 0.01 0.01 0.02 0.02 0.02 0.02 0.03 0.01 0.02
0.01 0.00 0.00 0.00 0.01 0.01 0.01 0.01 0.02 0.04 0.06 0.06 0.04 0.02 0.02 0.02 0.02 0.01 0.02 0.05 0.07 0.09 0.12 0.11 0.09 0.07 0.08 0.10 0.11 0.09 0.08 0.08 0.08 0.05 0.05 0.06 0.07 0.08 0.07 0.03 0.01 0.01 0.01 0.01 0.02 0.02 0.02 0.01 0.02
0.01 0.01 0.01 0.01 0.01 0.01 0.01 0.01 0.02 0.05 0.06 0.04 0.03 0.02 0.02 0.01 0.01 0.00 0.01 0.05 0.08 0.09 0.11 0.10 0.08 0.06 0.06 0.06 0.08 0.08 0.08 0.08 0.07 0.06 0.05 0.04 0.05 0.06 0.06 0.04 0.02 0.01 0.01 0.02 0.03 0.02 0.02 0.02 0.01
0.01 0.01 0.02 0.02 0.02 0.02 0.02 0.02 0.04 0.06 0.06 0.05 0.06 0.03 0.02 0.02 0.01 0.01 0.02 0.03 0.06 0.08 0.09 0.09 0.08 0.09 0.09 0.09 0.10 0.10 0.10 0.12 0.12 0.11 0.09 0.06 0.05 0.04 0.05 0.05 0.03 0.03 0.03 0.03 0.03 0.03 0.02 0.02 0.02
0.01 0.01 0.02 0.02 0.02 0.03 0.03 0.03 0.08 0.10 0.10 0.08 0.06 0.05 0.03 0.03 0.02 0.02 0.04 0.06 0.07 0.07 0.07 0.11 0.14 0.14 0.14 0.14 0.15 0.17 0.17 0.17 0.14 0.13 0.13 0.12 0.09 0.06 0.06 0.07 0.08 0.07 0.05 0.03 0.02 0.02 0.02 0.02 0.02
0.01 0.02 0.03 0.04 0.05 0.05 0.04 0.05 0.07 0.08 0.13 0.11 0.07 0.07 0.05 0.05 0.03 0.03 0.03 0.04 0.04 0.04 0.04 0.06 0.12 0.17 0.18 0.19 0.19 0.16 0.17 0.15 0.11 0.09 0.10 0.10 0.11 0.09 0.08 0.10 0.11 0.09 0.07 0.04 0.02 0.02 0.02 0.02 0.02
0.01 0.01 0.03 0.04 0.03 0.03 0.04 0.05 0.04 0.03 0.05 0.10 0.09 0.07 0.06 0.06 0.06 0.03 0.03 0.04 0.05 0.06 0.04 0.06 0.08 0.10 0.12 0.14 0.15 0.12 0.11 0.09 0.07 0.06 0.07 0.07 0.07 0.08 0.07 0.07 0.08 0.07 0.06 0.04 0.03 0.03 0.03 0.02 0.02
0.01 0.02 0.04 0.07 0.04 0.04 0.04 0.04 0.05 0.04 0.06 0.09 0.15 0.12 0.08 0.07 0.07 0.05 0.03 0.04 0.05 0.05 0.04 0.05 0.06 0.07 0.09 0.07 0.06 0.06 0.05 0.05 0.04 0.04 0.04 0.04 0.04 0.05 0.05 0.05 0.04 0.04 0.05 0.04 0.04 0.03 0.02 0.02 0.02
MSLP
1007.12 1007.94 1008.94 1009.93 1010.71 1011.17 1011.25 1010.98 1010.46 1009.86 1009.36 1009.07 1009.04 1009.26 1009.64 1010.03 1010.31 1010.35 1010.14 1009.70 1009.11 1008.51 1008.00 1007.67 1007.54 1007.59 1007.75 1007.93 1008.05 1008.08 1008.01 1007.88 1007.75 1007.67 1007.70 1007.83 1008.04 1008.31 1008.57 1008.81 1009.02 1009.22 1009.44 1009.74 1010.14 1010.66 1011.27 1011.93 1012.59
1007.67 1008.68 1009.77 1010.73 1011.38 1011.62 1011.41 1010.83 1010.03 1009.19 1008.50 1008.07 1007.97 1008.16 1008.52 1008.93 1009.23 1009.33 1009.19 1008.85 1008.39 1007.92 1007.56 1007.36 1007.35 1007.48 1007.69 1007.90 1008.04 1008.09 1008.04 1007.94 1007.85 1007.81 1007.87 1008.01 1008.23 1008.48 1008.71 1008.92 1009.10 1009.28 1009.50 1009.82 1010.24 1010.79 1011.42 1012.09 1012.73
1008.37 1009.52 1010.64 1011.53 1012.02 1012.02 1011.55 1010.71 1009.67 1008.64 1007.80 1007.27 1007.10 1007.23 1007.56 1007.95 1008.24 1008.36 1008.26 1008.00 1007.65 1007.32 1007.10 1007.04 1007.15 1007.38 1007.67 1007.92 1008.10 1008.17 1008.14 1008.07 1008.00 1007.99 1008.05 1008.19 1008.38 1008.59 1008.79 1008.96 1009.11 1009.29 1009.54 1009.89 1010.36 1010.94 1011.60 1012.27 1012.90
1009.15 1010.37 1011.47 1012.24 1012.56 1012.35 1011.66 1010.63 1009.42 1008.27 1007.35 1006.76 1006.53 1006.61 1006.89 1007.22 1007.48 1007.58 1007.50 1007.30 1007.05 1006.84 1006.75 1006.83 1007.05 1007.37 1007.72 1008.01 1008.21 1008.30 1008.29 1008.22 1008.17 1008.16 1008.22 1008.34 1008.50 1008.68 1008.84 1008.98 1009.14 1009.34 1009.62 1010.02 1010.54 1011.17 1011.85 1012.53 1013.14
1009.95 1011.16 1012.16 1012.80 1012.94 1012.56 1011.73 1010.58 1009.30 1008.11 1007.17 1006.56 1006.31 1006.35 1006.56 1006.82 1007.02 1007.08 1007.01 1006.86 1006.69 1006.59 1006.62 1006.80 1007.11 1007.50 1007.87 1008.17 1008.37 1008.44 1008.42 1008.35 1008.30 1008.29 1008.34 1008.46 1008.60 1008.76 1008.91 1009.06 1009.23 1009.46 1009.79 1010.25 1010.82 1011.48 1012.19 1012.86 1013.45
1010.66 1011.77 1012.64 1013.11 1013.10 1012.60 1011.69 1010.52 1009.27 1008.13 1007.23 1006.65 1006.40 1006.39 1006.55 1006.74 1006.87 1006.90 1006.83 1006.72 1006.63 1006.62 1006.74 1007.00 1007.37 1007.76 1008.13 1008.39 1008.54 1008.57 1008.51 1008.43 1008.37 1008.36 1008.42 1008.55 1008.70 1008.87 1009.03 1009.20 1009.41 1009.68 1010.06 1010.56 1011.18 1011.86 1012.57 1013.23 1013.78
1011.18 1012.15 1012.84 1013.14 1013.00 1012.44 1011.53 1010.41 1009.26 1008.23 1007.43 1006.92 1006.68 1006.66 1006.76 1006.88 1006.97 1006.98 1006.93 1006.86 1006.85 1006.93 1007.12 1007.43 1007.80 1008.16 1008.46 1008.65 1008.71 1008.67 1008.56 1008.45 1008.38 1008.39 1008.48 1008.64 1008.83 1009.03 1009.23 1009.44 1009.68 1009.99 1010.40 1010.92 1011.55 1012.24 1012.94 1013.57 1014.09
1011.47 1012.25 1012.75 1012.89 1012.66 1012.07 1011.21 1010.22 1009.21 1008.33 1007.66 1007.23 1007.02 1006.99 1007.05 1007.13 1007.19 1007.20 1007.19 1007.19 1007.26 1007.42 1007.67 1007.99 1008.33 1008.63 1008.83 1008.91 1008.87 1008.74 1008.57 1008.43 1008.37 1008.41 1008.55 1008.76 1009.01 1009.26 1009.51 1009.75 1010.02 1010.34 1010.76 1011.28 1011.89 1012.56 1013.23 1013.84 1014.34
1011.53 1012.10 1012.41 1012.41 1012.11 1011.54 1010.77 1009.92 1009.08 1008.36 1007.81 1007.46 1007.29 1007.24 1007.28 1007.34 1007.39 1007.44 1007.49 1007.58 1007.74 1007.97 1008.27 1008.59 1008.89 1009.10 1009.20 1009.16 1009.01 1008.80 1008.58 1008.43 1008.38 1008.47 1008.66 1008.94 1009.26 1009.57 1009.86 1010.13 1010.40 1010.72 1011.11 1011.59 1012.16 1012.79 1013.43 1014.02 1014.50
1011.39 1011.76 1011.90 1011.80 1011.45 1010.92 1010.26 1009.55 1008.87 1008.29 1007.85 1007.55 1007.39 1007.33 1007.35 1007.40 1007.48 1007.59 1007.72 1007.92 1008.17 1008.48 1008.81 1009.13 1009.38 1009.51 1009.51 1009.37 1009.14 1008.86 1008.62 1008.48 1008.47 1008.60 1008.86 1009.21 1009.58 1009.94 1010.26 1010.54 1010.80 1011.09 1011.43 1011.86 1012.38 1012.95 1013.56 1014.13 1014.63
1011.15 1011.35 1011.35 1011.16 1010.80 1010.31 1009.75 1009.16 1008.60 1008.12 1007.73 1007.46 1007.30 1007.23 1007.23 1007.29 1007.41 1007.58 1007.82 1008.11 1008.46 1008.84 1009.20 1009.52 1009.73 1009.80 1009.73 1009.53 1009.25 1008.97 1008.73 1008.62 1008.65 1008.85 1009.16 1009.56 1009.98 1010.37 1010.70 1010.98 1011.21 1011.46 1011.74 1012.11 1012.57 1013.10 1013.68 1014.25 1014.78
1010.92 1010.98 1010.88 1010.62 1010.26 1009.80 1009.31 1008.80 1008.31 1007.88 1007.51 1007.23 1007.04 1006.94 1006.93 1007.02 1007.18 1007.44 1007.76 1008.15 1008.58 1009.01 1009.40 1009.72 1009.90 1009.95 1009.85 1009.65 1009.38 1009.12 1008.93 1008.86 1008.96 1009.20 1009.56 1009.99 1010.43 1010.83 1011.16 1011.42 1011.63 1011.83 1012.07 1012.38 1012.80 1013.30 1013.86 1014.45 1015.02
1010.79 1010.75 1010.57 1010.27 1009.89 1009.46 1009.00 1008.52 1008.05 1007.61 1007.22 1006.90 1006.68 1006.55 1006.54 1006.65 1006.88 1007.20 1007.61 1008.07 1008.55 1009.02 1009.42 1009.74 1009.92 1009.97 1009.90 1009.74 1009.53 1009.34 1009.23 1009.23 1009.37 1009.65 1010.03 1010.46 1010.89 1011.28 1011.60 1011.84 1012.04 1012.22 1012.43 1012.72 1013.11 1013.60 1014.18 1014.79 1015.40
1010.82 1010.71 1010.47 1010.14 1009.74 1009.31 1008.84 1008.36 1007.86 1007.37 1006.93 1006.56 1006.29 1006.15 1006.15 1006.30 1006.58 1006.97 1007.44 1007.94 1008.45 1008.92 1009.32 1009.63 1009.83 1009.91 1009.91 1009.83 1009.73 1009.65 1009.63 1009.70 1009.89 1010.17 1010.54 1010.94 1011.34 1011.70 1012.00 1012.24 1012.43 1012.62 1012.85 1013.15 1013.55 1014.05 1014.64 1015.28 1015.93
1011.02 1010.85 1010.56 1010.20 1009.79 1009.33 1008.83 1008.30 1007.74 1007.18 1006.67 1006.24 1005.94 1005.80 1005.83 1006.03 1006.38 1006.83 1007.34 1007.87 1008.37 1008.82 1009.20 1009.49 1009.70 1009.84 1009.92 1009.96 1009.99 1010.03 1010.11 1010.25 1010.46 1010.73 1011.05 1011.39 1011.74 1012.06 1012.34 1012.59 1012.81 1013.04 1013.31 1013.65 1014.08 1014.61 1015.23 1015.90 1016.57
1011.31 1011.10 1010.79 1010.41 1009.97 1009.49 1008.94 1008.34 1007.69 1007.05 1006.46 1005.98 1005.66 1005.54 1005.63 1005.90 1006.32 1006.84 1007.38 1007.91 1008.39 1008.80 1009.13 1009.40 1009.62 1009.81 1009.99 1010.15 1010.31 1010.48 1010.66 1010.85 1011.05 1011.29 1011.54 1011.80 1012.08 1012.35 1012.62 1012.88 1013.15 1013.45 1013.78 1014.19 1014.67 1015.24 1015.88 1016.56 1017.25
1011.61 1011.37 1011.05 1010.68 1010.24 1009.72 1009.13 1008.45 1007.71 1006.98 1006.32 1005.79 1005.48 1005.40 1005.55 1005.91 1006.42 1007.00 1007.58 1008.11 1008.55 1008.90 1009.18 1009.41 1009.64 1009.88 1010.14 1010.42 1010.71 1010.98 1011.24 1011.46 1011.65 1011.82 1011.99 1012.16 1012.36 1012.59 1012.84 1013.13 1013.46 1013.82 1014.24 1014.71 1015.25 1015.85 1016.50 1017.19 1017.88
1011.80 1011.57 1011.28 1010.94 1010.53 1010.01 1009.37 1008.63 1007.80 1006.98 1006.24 1005.68 1005.36 1005.33 1005.57 1006.03 1006.63 1007.29 1007.91 1008.43 1008.84 1009.14 1009.36 1009.56 1009.78 1010.05 1010.38 1010.75 1011.14 1011.51 1011.82 1012.06 1012.22 1012.33 1012.40 1012.49 1012.61 1012.79 1013.03 1013.35 1013.73 1014.17 1014.65 1015.18 1015.76 1016.38 1017.03 1017.71 1018.38
1011.79 1011.62 1011.42 1011.17 1010.83 1010.34 1009.70 1008.89 1007.98 1007.07 1006.25 1005.64 1005.32 1005.32 1005.63 1006.19 1006.89 1007.63 1008.30 1008.84 1009.22 1009.48 1009.65 1009.81 1010.02 1010.30 1010.68 1011.13 1011.59 1012.02 1012.37 1012.62 1012.75 1012.79 1012.79 1012.80 1012.85 1012.99 1013.23 1013.57 1013.99 1014.48 1015.02 1015.58 1016.18 1016.79 1017.42 1018.06 1018.69
1011.54 1011.50 1011.46 1011.36 1011.15 1010.75 1010.12 1009.28 1008.30 1007.28 1006.37 1005.68 1005.33 1005.34 1005.71 1006.34 1007.14 1007.95 1008.68 1009.26 1009.64 1009.88 1010.02 1010.14 1010.33 1010.62 1011.01 1011.50 1012.01 1012.48 1012.86 1013.10 1013.21 1013.22 1013.16 1013.11 1013.11 1013.22 1013.46 1013.81 1014.26 1014.78 1015.34 1015.92 1016.49 1017.07 1017.65 1018.24 1018.83
1011.09 1011.24 1011.42 1011.56 1011.54 1011.26 1010.69 1009.84 1008.79 1007.66 1006.63 1005.85 1005.42 1005.41 1005.78 1006.46 1007.32 1008.21 1009.01 1009.63 1010.04 1010.27 1010.39 1010.49 1010.66 1010.93 1011.33 1011.82 1012.35 1012.85 1013.25 1013.50 1013.61 1013.59 1013.51 1013.43 1013.42 1013.52 1013.75 1014.11 1014.57 1015.10 1015.65 1016.20 1016.73 1017.25 1017.76 1018.28 1018.80
1010.50 1010.91 1011.39 1011.80 1012.02 1011.92 1011.44 1010.60 1009.48 1008.25 1007.08 1006.16 1005.63 1005.54 1005.87 1006.56 1007.45 1008.39 1009.25 1009.91 1010.36 1010.61 1010.73 1010.81 1010.95 1011.21 1011.59 1012.07 1012.60 1013.11 1013.52 1013.79 1013.91 1013.91 1013.84 1013.77 1013.77 1013.87 1014.11 1014.47 1014.93 1015.43 1015.95 1016.46 1016.93 1017.37 1017.79 1018.22 1018.68
1009.90 1010.61 1011.41 1012.14 1012.62 1012.71 1012.34 1011.53 1010.37 1009.03 1007.73 1006.66 1005.98 1005.77 1006.03 1006.67 1007.56 1008.52 1009.40 1010.11 1010.59 1010.87 1011.00 1011.08 1011.20 1011.42 1011.77 1012.23 1012.75 1013.25 1013.68 1013.98 1014.14 1014.18 1014.15 1014.12 1014.14 1014.27 1014.52 1014.88 1015.32 1015.80 1016.28 1016.72 1017.12 1017.47 1017.81 1018.15 1018.53
1009.41 1010.41 1011.53 1012.56 1013.30 1013.59 1013.34 1012.58 1011.39 1009.97 1008.54 1007.33 1006.50 1006.16 1006.30 1006.86 1007.69 1008.64 1009.53 1010.26 1010.76 1011.06 1011.21 1011.28 1011.38 1011.57 1011.88 1012.31 1012.81 1013.31 1013.75 1014.08 1014.29 1014.39 1014.43 1014.45 1014.53 1014.68 1014.94 1015.30 1015.73 1016.18 1016.61 1017.00 1017.33 1017.61 1017.87 1018.13 1018.42
1009.11 1010.37 1011.75 1013.03 1013.99 1014.46 1014.33 1013.63 1012.45 1010.98 1009.47 1008.15 1007.19 1006.71 1006.72 1007.17 1007.92 1008.80 1009.67 1010.39 1010.91 1011.21 1011.37 1011.44 1011.52 1011.68 1011.96 1012.35 1012.82 1013.31 1013.76 1014.13 1014.40 1014.57 1014.67 1014.76 1014.89 1015.08 1015.36 1015.71 1016.12 1016.54 1016.94 1017.29 1017.57 1017.80 1018.00 1018.19 1018.41
1009.04 1010.48 1012.04 1013.49 1014.60 1015.19 1015.17 1014.54 1013.41 1011.96 1010.42 1009.04 1008.00 1007.41 1007.31 1007.63 1008.27 1009.07 1009.87 1010.55 1011.05 1011.35 1011.50 1011.57 1011.63 1011.77 1012.01 1012.37 1012.82 1013.30 1013.77 1014.17 1014.49 1014.72 1014.90 1015.05 1015.22 1015.44 1015.73 1016.08 1016.47 1016.87 1017.24 1017.57 1017.84 1018.05 1018.21 1018.36 1018.52
1009.21 1010.71 1012.33 1013.83 1015.00 1015.67 1015.73 1015.19 1014.14 1012.77 1011.29 1009.93 1008.87 1008.23 1008.03 1008.24 1008.76 1009.44 1010.15 1010.76 1011.21 1011.49 1011.63 1011.69 1011.74 1011.86 1012.08 1012.42 1012.84 1013.32 1013.80 1014.23 1014.59 1014.88 1015.11 1015.31 1015.52 1015.76 1016.04 1016.38 1016.76 1017.14 1017.51 1017.84 1018.11 1018.33 1018.50 1018.64 1018.77
1009.55 1010.99 1012.54 1013.98 1015.12 1015.78 1015.90 1015.45 1014.54 1013.31 1011.97 1010.72 1009.72 1009.08 1008.84 1008.96 1009.36 1009.92 1010.50 1011.02 1011.40 1011.64 1011.75 1011.80 1011.86 1011.97 1012.18 1012.50 1012.91 1013.39 1013.87 1014.32 1014.72 1015.05 1015.33 1015.56 1015.79 1016.03 1016.31 1016.63 1016.98 1017.35 1017.72 1018.07 1018.37 1018.62 1018.83 1018.99 1019.13
1009.99 1011.26 1012.62 1013.89 1014.89 1015.50 1015.63 1015.29 1014.55 1013.52 1012.40 1011.33 1010.47 1009.90 1009.66 1009.73 1010.02 1010.45 1010.90 1011.30 1011.60 1011.78 1011.87 1011.91 1011.96 1012.08 1012.29 1012.61 1013.02 1013.49 1013.98 1014.46 1014.88 1015.24 1015.54 1015.80 1016.03 1016.27 1016.53 1016.83 1017.16 1017.52 1017.89 1018.26 1018.60 1018.91 1019.17 1019.38 1019.55
1010.44 1011.45 1012.53 1013.54 1014.35 1014.84 1014.97 1014.74 1014.18 1013.41 1012.55 1011.73 1011.07 1010.62 1010.43 1010.46 1010.67 1010.97 1011.29 1011.57 1011.77 1011.89 1011.94 1011.98 1012.04 1012.17 1012.39 1012.71 1013.13 1013.60 1014.10 1014.59 1015.03 1015.42 1015.75 1016.03 1016.27 1016.50 1016.74 1017.01 1017.31 1017.66 1018.02 1018.40 1018.79 1019.15 1019.47 1019.75 1019.97
Thickness
5822 5821 5819 5807 5784 5762 5760 5781 5799 5805 5810 5821 5826 5823 5813 5805 5794 5784 5809 5816 5812 5807 5803 5800 5798 5796 5794 5791 5789 5787 5785 5783 5781 5780 5778 5777 5775 5773 5772 5771 5769 5768 5766 5765 5763 5761 5760 5759 5757
5822 5820 5810 5791 5765 5747 5760 5789 5798 5809 5819 5825 5824 5821 5814 5808 5814 5809 5810 5811 5810 5807 5803 5800 5797 5795 5792 5789 5787 5785 5783 5781 5779 5777 5776 5774 5773 5771 5770 5768 5767 5765 5764 5762 5761 5759 5758 5757 5755
5822 5818 5795 5775 5760 5753 5768 5794 5805 5818 5827 5825 5818 5819 5814 5809 5814 5812 5814 5813 5809 5805 5802 5799 5796 5793 5791 5788 5786 5783 5781 5779 5777 5775 5773 5772 5770 5768 5767 5766 5764 5763 5762 5760 5758 5757 5756 5755 5753
5815 5801 5787 5767 5762 5775 5788 5802 5813 5815 5821 5825 5818 5809 5815 5825 5823 5820 5817 5813 5809 5804 5801 5798 5795 5792 5789 5787 5784 5782 5779 5777 5775 5773 5771 5769 5768 5766 5765 5763 5762 5760 5759 5758 5756 5755 5754 5753 5752
5807 5786 5768 5756 5766 5786 5803 5814 5819 5813 5814 5819 5817 5802 5804 5823 5829 5824 5818 5812 5808 5803 5800 5797 5794 5791 5788 5785 5783 5780 5777 5775 5773 5771 5769 5767 5766 5764 5763 5761 5760 5758 5757 5756 5754 5753 5752 5751 5750
5789 5776 5754 5749 5767 5791 5806 5818 5818 5812 5811 5816 5813 5802 5801 5821 5822 5820 5818 5813 5809 5803 5799 5795 5792 5789 5786 5783 5780 5778 5775 5773 5771 5769 5767 5765 5763 5762 5761 5759 5758 5757 5755 5754 5753 5751 5750 5749 5748
5781 5768 5758 5763 5771 5786 5806 5819 5815 5811 5810 5814 5818 5799 5800 5813 5819 5819 5815 5811 5807 5801 5797 5793 5789 5787 5784 5781 5778 5776 5773 5771 5769 5767 5765 5763 5761 5759 5758 5757 5755 5755 5754 5752 5751 5749 5748 5747 5746
5792 5771 5763 5764 5773 5785 5810 5817 5820 5816 5814 5826 5823 5800 5795 5811 5818 5815 5810 5805 5801 5798 5795 5791 5787 5784 5782 5779 5776 5773 5771 5768 5766 5764 5762 5760 5759 5757 5756 5755 5754 5753 5751 5750 5749 5748 5746 5745 5744
5798 5763 5752 5766 5777 5788 5809 5810 5817 5826 5822 5822 5822 5817 5817 5819 5816 5808 5800 5796 5793 5792 5790 5788 5784 5782 5780 5777 5774 5771 5768 5766 5763 5761 5759 5757 5756 5755 5753 5752 5752 5750 5749 5748 5747 5746 5745 5743 5741
5782 5756 5767 5788 5795 5796 5804 5808 5813 5811 5807 5807 5809 5815 5819 5815 5809 5801 5794 5789 5787 5785 5785 5784 5782 5779 5777 5775 5772 5769 5766 5763 5761 5759 5756 5754 5753 5752 5750 5750 5749 5748 5747 5746 5745 5743 5742 5741 5739
5783 5773 5787 5798 5805 5806 5804 5807 5815 5804 5795 5802 5803 5806 5809 5806 5801 5796 5792 5790 5788 5786 5784 5783 5780 5777 5775 5772 5769 5766 5764 5760 5758 5756 5754 5752 5750 5749 5747 5746 5746 5745 5744 5743 5742 5741 5739 5738 5737
5783 5789 5796 5801 5809 5806 5804 5806 5806 5805 5805 5816 5815 5813 5807 5801 5796 5793 5790 5788 5787 5784 5782 5781 5779 5775 5773 5771 5768 5764 5761 5758 5756 5754 5752 5750 5748 5746 5745 5744 5742 5742 5741 5740 5739 5738 5737 5736 5735
5781 5786 5797 5803 5806 5807 5806 5804 5804 5804 5813 5816 5814 5808 5802 5798 5795 5793 5792 5788 5785 5782 5780 5778 5776 5773 5771 5769 5766 5763 5760 5757 5754 5752 5750 5748 5746 5744 5742 5741 5739 5739 5738 5737 5736 5735 5734 5733 5732
5786 5788 5793 5798 5801 5804 5798 5799 5798 5801 5810 5807 5804 5800 5799 5797 5794 5790 5787 5784 5782 5780 5777 5776 5774 5771 5769 5766 5763 5761 5758 5756 5753 5750 5748 5746 5744 5742 5740 5737 5736 5735 5735 5734 5733 5732 5731 5730 5729
5789 5781 5783 5791 5797 5800 5796 5783 5791 5803 5805 5799 5797 5797 5795 5794 5793 5789 5787 5784 5782 5778 5774 5772 5771 5769 5766 5763 5761 5759 5756 5753 5750 5748 5746 5744 5742 5739 5737 5734 5733 5732 5731 5730 5729 5728 5727 5726 5725
5777 5767 5759 5780 5791 5796 5782 5762 5790 5802 5797 5791 5792 5792 5790 5789 5789 5788 5786 5783 5780 5776 5771 5769 5768 5764 5762 5760 5757 5755 5753 5750 5748 5746 5745 5743 5740 5738 5735 5732 5730 5729 5728 5727 5725 5723 5722 5722 5721
5753 5745 5750 5767 5788 5787 5775 5764 5787 5798 5793 5787 5788 5787 5785 5784 5784 5784 5783 5780 5777 5773 5769 5765 5763 5761 5758 5756 5754 5751 5749 5747 5745 5743 5742 5740 5738 5736 5733 5730 5727 5726 5725 5723 5722 5720 5719 5717 5717
5737 5742 5749 5756 5777 5778 5768 5767 5782 5790 5789 5785 5784 5782 5781 5780 5780 5781 5779 5776 5773 5769 5765 5762 5759 5756 5754 5751 5748 5746 5744 5743 5741 5739 5738 5736 5734 5732 5730 5727 5725 5723 5721 5719 5719 5716 5716 5715 5714
5751 5747 5745 5760 5778 5771 5764 5765 5773 5781 5780 5778 5778 5777 5776 5777 5778 5777 5774 5771 5767 5763 5759 5756 5753 5750 5748 5744 5741 5739 5737 5737 5736 5736 5734 5733 5731 5729 5727 5724 5722 5720 5718 5716 5715 5713 5711 5710 5710
5751 5742 5745 5759 5775 5769 5759 5762 5772 5776 5777 5779 5776 5774 5773 5770 5769 5769 5767 5764 5761 5757 5754 5751 5749 5746 5743 5741 5739 5737 5734 5733 5733 5732 5730 5729 5728 5726 5724 5721 5719 5717 5715 5713 5711 5710 5707 5706 5706
5748 5743 5747 5751 5763 5765 5756 5748 5759 5769 5776 5777 5776 5774 5772 5769 5764 5763 5761 5758 5755 5752 5750 5748 5745 5742 5739 5737 5734 5731 5728 5727 5726 5726 5725 5725 5724 5723 5721 5719 5717 5714 5713 5710 5708 5707 5705 5701 5701
5740 5759 5760 5756 5743 5733 5745 5719 5743 5755 5760 5764 5766 5766 5765 5766 5763 5759 5756 5753 5751 5749 5747 5744 5742 5739 5735 5733 5729 5725 5722 5720 5721 5722 5721 5721 5720 5719 5718 5716 5714 5712 5710 5707 5706 5705 5703 5700 5697
5753 5766 5761 5755 5741 5728 5733 5718 5726 5746 5746 5752 5759 5762 5762 5763 5760 5757 5754 5752 5749 5746 5742 5739 5737 5733 5730 5729 5726 5722 5719 5718 5717 5718 5717 5716 5715 5715 5714 5713 5710 5708 5706 5705 5703 5701 5700 5698 5695
5765 5756 5749 5739 5723 5707 5722 5716 5714 5731 5741 5748 5755 5758 5759 5758 5756 5754 5752 5747 5743 5739 5736 5733 5730 5728 5726 5724 5722 5720 5716 5714 5712 5711 5711 5710 5710 5710 5710 5709 5707 5705 5703 5701 5700 5698 5696 5695 5694
5752 5725 5702 5699 5692 5698 5720 5715 5715 5738 5747 5750 5751 5752 5754 5753 5749 5746 5743 5739 5736 5733 5730 5728 5725 5723 5722 5720 5718 5717 5714 5712 5709 5709 5708 5706 5705 5705 5705 5705 5703 5701 5700 5699 5697 5695 5693 5692 5691
5740 5725 5695 5684 5683 5693 5711 5706 5720 5741 5745 5748 5748 5747 5747 5745 5743 5741 5739 5736 5733 5729 5726 5725 5721 5719 5718 5716 5714 5712 5711 5709 5707 5706 5706 5703 5702 5702 5702 5701 5699 5698 5696 5695 5693 5691 5689 5689 5688
5736 5725 5724 5702 5697 5687 5693 5708 5721 5735 5735 5737 5738 5737 5737 5736 5735 5735 5733 5731 5728 5726 5723 5722 5718 5716 5714 5712 5711 5709 5708 5704 5703 5702 5701 5699 5698 5699 5698 5696 5694 5693 5692 5691 5689 5687 5685 5685 5684
5742 5731 5709 5694 5681 5675 5688 5695 5699 5714 5720 5726 5727 5727 5727 5728 5726 5725 5725 5725 5723 5722 5721 5719 5716 5712 5709 5707 5704 5704 5702 5700 5698 5697 5696 5695 5694 5694 5693 5692 5690 5688 5686 5685 5684 5683 5682 5681 5681
5728 5722 5708 5693 5688 5676 5672 5685 5715 5713 5718 5718 5720 5721 5720 5719 5718 5718 5718 5718 5718 5717 5714 5711 5709 5706 5703 5701 5699 5699 5697 5696 5695 5693 5692 5691 5690 5689 5688 5687 5685 5683 5681 5680 5679 5678 5678 5677 5676
5729 5718 5705 5687 5683 5682 5673 5680 5717 5715 5715 5715 5716 5716 5715 5713 5714 5713 5712 5711 5709 5708 5707 5705 5703 5701 5699 5697 5696 5694 5693 5692 5690 5689 5688 5687 5685 5685 5684 5682 5680 5679 5677 5676 5674 5673 5673 5672 5671